Location: UMBC
(39.2555°N, 76.7093°W)
Time: 00:17:04
(UTC+02:00)

Amateur Radio Satellites - All Passes

Search period start: 16 October 2017 23:47
Search period end: 17 October 2017 23:47
Location: UMBC, 39.2555°N, 76.7093°W

Satellite Date Start Highest point End Downlink Frequencies (MHz)
Time Altitude Azimuth
KAITUO 1B 16 Oct 23:49:59 23:52:47 20° 69° (ENE) 23:55:36 145.475/437.950
XW-2D 16 Oct 23:52:07 23:55:30 31° 72° (ENE) 23:58:53 145.860 - 145.880
DOVE 4 17 Oct 00:00:00 00:03:56 44° 262° (W) 00:08:00 437.250
KKS-1 17 Oct 00:02:49 00:07:13 53° 101° (E) 00:11:36 437.445
XW-2B 17 Oct 00:05:08 00:08:45 43° 74° (ENE) 00:12:23 145.730 - 145.750
NUDT-PHONESAT 17 Oct 00:10:57 00:14:21 35° 73° (ENE) 00:17:47 437.300
PCSat 17 Oct 00:14:34 00:19:31 35° 53° (NE) 00:24:26 145.827
XW-2C 17 Oct 00:27:53 00:31:42 89° 79° (E) 00:35:31 145.795 - 145.815
CUTE-I 17 Oct 00:39:03 00:44:21 90° 104° (ESE) 00:49:43 437.470
STARS 17 Oct 00:48:10 00:52:36 67° 102° (ESE) 00:57:01 437.465
HO-68 17 Oct 00:51:32 00:58:24 53° 68° (ENE) 01:05:19 435.675
nSIGHT-1 17 Oct 00:58:27 01:01:36 55° 222° (SW) 01:04:45 .
LilacSat-2 17 Oct 01:13:31 01:16:34 22° 265° (W) 01:19:38 437.200
CUTE 1.7 + AOD 2 17 Oct 01:14:21 01:18:31 59° 75° (ENE) 01:22:41 437.475
XW-2F 17 Oct 01:17:46 01:20:47 22° 265° (W) 01:23:50 145.980 - 146.000
XW-2A 17 Oct 01:20:18 01:22:55 21° 70° (ENE) 01:25:31 145.665 - 145.685
ISS 17 Oct 01:20:20 01:23:24 38° 224° (SW) 01:26:28 437.550
KAITUO 1B 17 Oct 01:23:33 01:26:37 24° 264° (W) 01:29:42 145.475/437.950
XW-2D 17 Oct 01:27:17 01:29:43 16° 267° (W) 01:32:09 145.860 - 145.880
CUBEBUG 2 17 Oct 01:29:00 01:33:27 50° 73° (ENE) 01:38:02 437.445
SEEDS 17 Oct 01:30:09 01:34:14 53° 74° (ENE) 01:38:19 437.485
KKS-1 17 Oct 01:40:50 01:43:18 15° 296° (WNW) 01:45:46 437.445
XW-2B 17 Oct 01:41:44 01:43:07 12° 268° (W) 01:44:32 145.730 - 145.750
AO-73 17 Oct 01:45:39 01:49:05 21° 67° (ENE) 01:52:31 145.935
NUDT-PHONESAT 17 Oct 01:46:22 01:48:20 14° 267° (W) 01:50:17 437.300
PCSat 17 Oct 01:58:03 02:02:49 32° 251° (WSW) 02:07:34 145.827
STRAND 1 17 Oct 01:59:35 02:04:15 33° 97° (E) 02:08:53 437.568
YUBILEINY 17 Oct 02:02:34 02:09:01 22° 66° (ENE) 02:15:25 435.215
ZACube-1 17 Oct 02:04:05 02:08:16 37° 71° (ENE) 02:12:30 437.345
AAUSAT CUBESAT 2 17 Oct 02:07:23 02:11:26 62° 75° (ENE) 02:15:29 437.432
UWE-3 17 Oct 02:16:09 02:20:45 87° 255° (WSW) 02:25:27 435.000/436.395/437.385
STARS 17 Oct 02:26:46 02:28:20 12° 298° (WNW) 02:29:54 437.465
HO-68 17 Oct 02:40:23 02:46:21 28° 265° (W) 02:52:24 435.675
DELFI C3 17 Oct 02:43:38 02:44:43 11° 65° (ENE) 02:45:47 145.870
Oscar 11 17 Oct 02:48:33 02:52:51 68° 75° (ENE) 02:57:10 .
XW-2A 17 Oct 02:52:58 02:55:31 19° 265° (W) 02:58:04 145.665 - 145.685
CUTE 1.7 + AOD 2 17 Oct 02:53:46 02:54:41 11° 270° (W) 02:55:37 437.475
Max Valier Satellite 17 Oct 02:57:23 02:58:17 11° 65° (ENE) 02:59:12 145.860
CUBEBUG 2 17 Oct 03:07:38 03:10:21 15° 269° (W) 03:13:05 437.445
SEEDS 17 Oct 03:08:49 03:10:13 11° 269° (W) 03:11:37 437.485
FO-29 17 Oct 03:11:33 03:17:38 33° 97° (E) 03:24:13 435.910
BEESAT 3 17 Oct 03:14:58 03:16:46 13° 43° (NE) 03:18:33 437.485
AO-73 17 Oct 03:20:51 03:25:03 36° 263° (W) 03:29:16 145.935
STRAND 1 17 Oct 03:38:56 03:43:17 28° 293° (WNW) 03:47:37 437.568
ZACube-1 17 Oct 03:41:15 03:44:37 20° 267° (W) 03:48:02 437.345
O/OREOS (USA 219) 17 Oct 03:57:35 04:02:07 85° 113° (ESE) 04:06:44 437.305
YUBILEINY 17 Oct 03:57:57 04:06:45 78° 265° (W) 04:15:32 435.215
DELFI C3 17 Oct 04:15:09 04:18:58 53° 260° (W) 04:22:48 145.870
BEESAT 2 17 Oct 04:24:33 04:27:32 20° 47° (NE) 04:30:30 435.950
EO-88 17 Oct 04:27:54 04:31:32 71° 259° (WSW) 04:35:11 145.990 - 145.960
Max Valier Satellite 17 Oct 04:28:01 04:31:38 50° 261° (W) 04:35:17 145.860
UNISAT 6 17 Oct 04:34:13 04:38:39 42° 98° (E) 04:42:56 437.425
TIGRISAT 17 Oct 04:50:07 04:54:43 58° 100° (E) 04:59:10 435.000
BEESAT 3 17 Oct 04:50:50 04:54:46 69° 242° (WSW) 04:58:38 437.485
FO-29 17 Oct 04:56:19 05:02:40 46° 290° (WNW) 05:09:40 435.910
AO-85 17 Oct 05:00:08 05:04:20 36° 53° (NE) 05:08:48 145.980
AIST 2D 17 Oct 05:20:49 05:21:47 11° 92° (E) 05:22:45 435.315
PRISM 17 Oct 05:21:02 05:25:06 58° 101° (E) 05:29:09 437.425
LO-87 17 Oct 05:30:59 05:34:33 82° 77° (ENE) 05:38:11 145.935 - 145.965
O/OREOS (USA 219) 17 Oct 05:41:08 05:42:12 11° 309° (NW) 05:43:15 437.305
SPROUT 17 Oct 05:44:02 05:46:54 18° 66° (ENE) 05:49:46 437.525
ESTCUBE 1 17 Oct 05:47:25 05:51:55 83° 77° (ENE) 05:56:25 437.505/2401.250
VELOX 1 17 Oct 05:57:02 05:59:57 18° 66° (ENE) 06:02:54 145.980
YUBILEINY 17 Oct 05:58:14 06:01:58 13° 285° (WNW) 06:05:43 435.215
BEESAT 2 17 Oct 06:01:38 06:05:25 39° 244° (WSW) 06:09:07 435.950
UNISAT 6 17 Oct 06:11:45 06:14:59 19° 294° (WNW) 06:18:09 437.425
EO-79 17 Oct 06:22:39 06:26:13 25° 96° (E) 06:29:46 145.935-145.965
POLYITAN 1 17 Oct 06:26:06 06:29:47 28° 96° (E) 06:33:25 437.675
TIGRISAT 17 Oct 06:28:23 06:30:50 14° 297° (WNW) 06:33:16 435.000
AO-85 17 Oct 06:40:44 06:44:38 27° 247° (WSW) 06:48:45 145.980
QB50P2 17 Oct 06:45:40 06:49:52 53° 100° (E) 06:54:00 145.880/145.840
AIST 2D 17 Oct 06:51:54 06:55:07 36° 287° (WNW) 06:58:19 435.315
NANOSAT C BR1 17 Oct 06:53:13 06:57:23 51° 100° (E) 07:01:30 145.865
PRISM 17 Oct 06:58:26 06:59:51 12° 296° (WNW) 07:01:15 437.425
DUCHIFAT 1 17 Oct 07:06:17 07:10:31 64° 101° (ESE) 07:14:41 145.980
RS-15 17 Oct 07:07:51 07:19:28 53° 110° (ESE) 07:31:09 29.354- 29.394
50 SAT 17 Oct 07:13:16 07:16:07 28° 72° (ENE) 07:18:58 437.505
DX 1 17 Oct 07:15:23 07:19:10 31° 70° (ENE) 07:22:59 434.975-435.025
SPROUT 17 Oct 07:18:29 07:22:28 38° 262° (W) 07:26:29 437.525
BUGSAT 1 17 Oct 07:30:39 07:34:21 29° 96° (E) 07:38:01 437.445
VELOX 1 17 Oct 07:31:58 07:36:04 40° 261° (W) 07:40:13 145.980
Oscar 19 17 Oct 07:34:44 07:38:00 17° 92° (E) 07:41:15 437.125/150
Gurwin Techsat 1B 17 Oct 07:35:10 07:36:50 11° 89° (E) 07:38:29 435.225
UKube-1 17 Oct 07:47:40 07:51:44 44° 72° (ENE) 07:55:50 .
EO-79 17 Oct 07:58:21 08:01:52 25° 291° (WNW) 08:05:22 145.935-145.965
POLYITAN 1 17 Oct 08:02:00 08:05:24 23° 292° (WNW) 08:08:47 437.675
QB50P2 17 Oct 08:23:06 08:25:10 13° 296° (WNW) 08:27:13 145.880/145.840
NANOSAT C BR1 17 Oct 08:30:30 08:32:37 14° 296° (WNW) 08:34:44 145.865
DUCHIFAT 1 17 Oct 08:44:19 08:45:36 11° 297° (WNW) 08:46:52 145.980
50 SAT 17 Oct 08:47:07 08:48:30 12° 267° (W) 08:49:55 437.505
DX 1 17 Oct 08:52:01 08:55:21 22° 265° (W) 08:58:42 434.975-435.025
M-CUBED/EXP-1 PRIME 17 Oct 08:54:04 08:57:33 87° 285° (WNW) 09:01:17 437.505
ITUPSAT 1 17 Oct 08:55:33 08:59:45 31° 69° (ENE) 09:03:58 437.325
MOZHAYETS 4 17 Oct 09:03:58 09:08:17 40° 71° (ENE) 09:12:37
BUGSAT 1 17 Oct 09:06:13 09:09:31 22° 292° (WNW) 09:12:48 437.445
Gurwin Techsat 1B 17 Oct 09:12:01 09:17:21 81° 285° (WNW) 09:22:40 435.225
Oscar 19 17 Oct 09:12:38 09:17:37 53° 288° (WNW) 09:22:34 437.125/150
BEESAT 17 Oct 09:13:22 09:17:56 47° 72° (ENE) 09:22:32 436.000
RS-15 17 Oct 09:20:13 09:32:04 51° 313° (NW) 09:43:58 29.354- 29.394
UKube-1 17 Oct 09:25:30 09:27:57 15° 267° (W) 09:30:25 .
ITAMSAT 1 17 Oct 09:38:02 09:41:05 16° 92° (E) 09:44:08 435.822/435.867
NO-84 17 Oct 09:44:14 09:47:21 20° 124° (SE) 09:50:27 435.350 FM
AO-7 17 Oct 10:20:20 10:28:25 53° 102° (ESE) 10:36:28 .
ITUPSAT 1 17 Oct 10:33:30 10:37:31 27° 264° (W) 10:41:35 437.325
CUBESAT XI-V 17 Oct 10:41:19 10:45:58 89° 259° (W) 10:50:37 437.345
MOZHAYETS 4 17 Oct 10:42:15 10:45:33 19° 267° (W) 10:48:52
BEESAT 17 Oct 10:52:51 10:55:55 17° 267° (W) 10:59:02 436.000
Gurwin Techsat 1B 17 Oct 10:55:38 10:56:24 10° 302° (WNW) 10:57:10 435.225
KKS-1 17 Oct 10:59:38 11:03:48 42° 72° (ENE) 11:08:00 437.445
ITAMSAT 1 17 Oct 11:15:45 11:20:55 60° 287° (WNW) 11:26:03 435.822/435.867
NO-84 17 Oct 11:20:15 11:24:29 56° 319° (NW) 11:28:38 435.350 FM
RS-15 17 Oct 11:39:39 11:48:34 22° 343° (NNW) 11:57:19 29.354- 29.394
STARS 17 Oct 11:43:22 11:47:36 51° 73° (ENE) 11:51:53 437.465
DOVE 4 17 Oct 11:58:24 12:03:12 51° 100° (E) 12:08:12 437.250
AO-7 17 Oct 12:13:36 12:20:49 35° 300° (WNW) 12:28:04 .
O/OREOS (USA 219) 17 Oct 12:30:52 12:33:28 15° 54° (NE) 12:36:02 437.305
KKS-1 17 Oct 12:37:45 12:40:31 16° 267° (W) 12:43:20 437.445
LilacSat-2 17 Oct 12:46:50 12:50:21 37° 98° (E) 12:53:52 437.200
XW-2F 17 Oct 12:49:57 12:53:23 35° 98° (E) 12:56:47 145.980 - 146.000
KAITUO 1B 17 Oct 12:54:56 12:58:14 31° 97° (E) 13:01:31 145.475/437.950
CUTE-I 17 Oct 12:57:17 13:02:18 39° 98° (E) 13:07:18 437.470
XW-2D 17 Oct 12:59:03 13:02:43 52° 100° (E) 13:06:21 145.860 - 145.880
NO-84 17 Oct 13:00:16 13:02:38 14° 337° (NNW) 13:04:57 435.350 FM
CUTE 1.7 + AOD 2 17 Oct 13:02:44 13:03:42 11° 90° (E) 13:04:40 437.475
XW-2B 17 Oct 13:12:19 13:16:04 76° 102° (ESE) 13:19:47 145.730 - 145.750
STRAND 1 17 Oct 13:14:17 13:19:05 43° 71° (ENE) 13:23:57 437.568
NUDT-PHONESAT 17 Oct 13:15:20 13:18:57 56° 100° (E) 13:22:32 437.300
STARS 17 Oct 13:22:05 13:24:13 13° 268° (W) 13:26:22 437.465
CUBEBUG 2 17 Oct 13:23:04 13:24:50 12° 89° (E) 13:26:36 437.445
XW-2C 17 Oct 13:35:25 13:39:04 50° 285° (WNW) 13:42:41 145.795 - 145.815
DOVE 4 17 Oct 13:37:09 13:40:30 19° 294° (WNW) 13:43:56 437.250
SO-50 17 Oct 13:51:00 13:55:19 50° 117° (ESE) 13:59:40 436.795
AAUSAT CUBESAT 2 17 Oct 13:53:25 13:53:46 10° 90° (E) 13:54:08 437.432
RS-15 17 Oct 13:58:10 14:07:16 23° 20° (NNE) 14:16:02 29.354- 29.394
HO-68 17 Oct 14:07:34 14:14:42 61° 102° (ESE) 14:21:48 435.675
UWE-3 17 Oct 14:07:45 14:11:10 21° 93° (E) 14:14:30 435.000/436.395/437.385
O/OREOS (USA 219) 17 Oct 14:08:45 14:13:17 60° 252° (WSW) 14:17:46 437.305
XW-2A 17 Oct 14:14:54 14:17:38 23° 96° (E) 14:20:21 145.665 - 145.685
LilacSat-2 17 Oct 14:22:20 14:24:17 14° 293° (WNW) 14:26:14 437.200
XW-2F 17 Oct 14:25:08 14:27:10 14° 293° (WNW) 14:29:12 145.980 - 146.000
KAITUO 1B 17 Oct 14:29:42 14:31:57 16° 292° (WNW) 14:34:11 145.475/437.950
CUTE 1.7 + AOD 2 17 Oct 14:35:45 14:39:52 57° 285° (WNW) 14:43:58 437.475
XW-2D 17 Oct 14:35:58 14:36:24 10° 295° (WNW) 14:36:49 145.860 - 145.880
CUTE-I 17 Oct 14:37:44 14:42:07 26° 294° (WNW) 14:46:29 437.470
Oscar 11 17 Oct 14:38:24 14:40:31 13° 91° (E) 14:42:38 .
SEEDS 17 Oct 14:50:11 14:54:19 65° 285° (WNW) 14:58:26 437.485
STRAND 1 17 Oct 14:54:35 14:58:26 21° 266° (W) 15:02:18 437.568
PCSat 17 Oct 14:55:06 15:00:03 37° 110° (ESE) 15:05:01 145.827
CUBEBUG 2 17 Oct 14:57:14 15:01:53 62° 285° (WNW) 15:06:22 437.445
YUBILEINY 17 Oct 15:03:09 15:09:46 25° 81° (E) 15:16:23 435.215
FO-29 17 Oct 15:08:11 15:13:19 73° 74° (ENE) 15:18:45 435.910
AO-73 17 Oct 15:09:36 15:13:50 46° 99° (E) 15:17:56 145.935
AAUSAT CUBESAT 2 17 Oct 15:25:30 15:29:34 58° 285° (WNW) 15:33:36 437.432
ZACube-1 17 Oct 15:29:13 15:33:40 89° 98° (E) 15:37:57 437.345
Tancredo 1 17 Oct 15:30:36 15:32:22 32° 137° (SE) 15:34:08 437.200
UNISAT 6 17 Oct 15:31:39 15:35:45 33° 70° (ENE) 15:39:56 437.425
SO-50 17 Oct 15:32:47 15:36:02 19° 315° (NW) 15:39:20 436.795
JUGNU 17 Oct 15:33:38 15:34:32 10° 178° (S) 15:35:25 437.505
UWE-3 17 Oct 15:43:35 15:47:41 34° 289° (WNW) 15:51:40 435.000/436.395/437.385
TIGRISAT 17 Oct 15:47:12 15:51:33 43° 72° (ENE) 15:56:00 435.000
XW-2A 17 Oct 15:48:00 15:50:09 16° 291° (WNW) 15:52:17 145.665 - 145.685
DELFI C3 17 Oct 15:53:28 15:56:21 19° 94° (E) 15:59:12 145.870
HO-68 17 Oct 15:56:11 16:01:54 26° 300° (WNW) 16:07:36 435.675
Max Valier Satellite 17 Oct 15:59:54 16:02:03 15° 93° (E) 16:04:12 145.860
PRISM 17 Oct 16:09:08 16:12:48 34° 71° (ENE) 16:16:28 437.425
RS-15 17 Oct 16:11:21 16:23:10 58° 50° (NE) 16:34:16 29.354- 29.394
Oscar 11 17 Oct 16:12:46 16:16:55 48° 287° (WNW) 16:21:02 .
NO-84 17 Oct 16:18:39 16:20:33 13° 20° (NNE) 16:22:23 435.350 FM
ISS 17 Oct 16:25:24 16:26:16 11° 128° (SE) 16:27:07 437.550
PCSat 17 Oct 16:38:43 16:43:28 31° 308° (NW) 16:48:15 145.827
AO-73 17 Oct 16:47:04 16:49:38 15° 295° (WNW) 16:52:10 145.935
YUBILEINY 17 Oct 16:57:10 17:05:46 65° 280° (W) 17:14:27 435.215
FO-29 17 Oct 16:57:42 16:59:10 11° 272° (W) 17:00:40 435.910
Tancredo 1 17 Oct 17:03:50 17:04:27 11° 334° (NNW) 17:05:04 437.200
UNISAT 6 17 Oct 17:08:47 17:12:28 23° 266° (W) 17:16:13 437.425
EO-79 17 Oct 17:14:30 17:17:20 18° 66° (ENE) 17:20:11 145.935-145.965
POLYITAN 1 17 Oct 17:17:57 17:20:59 19° 67° (ENE) 17:24:03 437.675
AIST 2D 17 Oct 17:24:19 17:27:45 57° 76° (ENE) 17:31:13 435.315
TIGRISAT 17 Oct 17:25:20 17:28:25 18° 268° (W) 17:31:33 435.000
DELFI C3 17 Oct 17:27:40 17:31:06 29° 289° (WNW) 17:34:31 145.870
EO-88 17 Oct 17:30:57 17:34:27 45° 286° (WNW) 17:37:53 145.990 - 145.960
Max Valier Satellite 17 Oct 17:32:40 17:35:57 31° 288° (WNW) 17:39:12 145.860
nSIGHT-1 17 Oct 17:35:16 17:38:27 75° 140° (SE) 17:41:38 .
QB50P2 17 Oct 17:37:00 17:40:50 34° 71° (ENE) 17:44:43 145.880/145.840
ESTCUBE 1 17 Oct 17:41:46 17:44:54 18° 93° (E) 17:48:01 437.505/2401.250
NANOSAT C BR1 17 Oct 17:44:03 17:47:50 32° 71° (ENE) 17:51:38 145.865
PRISM 17 Oct 17:45:29 17:48:08 17° 266° (W) 17:50:49 437.425
SRMSAT 17 Oct 17:50:26 17:50:53 10° 174° (S) 17:51:21 437.500
NO-84 17 Oct 17:55:01 17:58:41 59° 40° (NE) 18:02:02 435.350 FM
DUCHIFAT 1 17 Oct 17:56:39 18:00:36 39° 72° (ENE) 18:04:34 145.980
ISS 17 Oct 17:59:03 18:02:18 72° 323° (NW) 18:05:33 437.550
BUGSAT 1 17 Oct 18:19:44 18:22:36 18° 66° (ENE) 18:25:30 437.445
RS-15 17 Oct 18:24:31 18:35:07 42° 253° (WSW) 18:45:14 29.354- 29.394
LO-87 17 Oct 18:31:54 18:35:32 67° 284° (WNW) 18:39:07 145.935 - 145.965
BEESAT 3 17 Oct 18:39:30 18:42:42 23° 112° (ESE) 18:45:56 437.485
EO-79 17 Oct 18:48:49 18:52:46 38° 262° (W) 18:56:47 145.935-145.965
Oscar 19 17 Oct 18:50:18 18:54:22 24° 66° (ENE) 18:58:25 437.125/150
POLYITAN 1 17 Oct 18:52:35 18:56:30 35° 262° (W) 19:00:27 437.675
Gurwin Techsat 1B 17 Oct 18:54:18 18:57:53 19° 63° (ENE) 19:01:27 435.225
YUBILEINY 17 Oct 19:01:45 19:04:29 12° 302° (WNW) 19:07:13 435.215
SPROUT 17 Oct 19:04:48 19:08:47 36° 98° (E) 19:12:44 437.525
nSIGHT-1 17 Oct 19:12:46 19:15:02 18° 338° (NNW) 19:17:19 .
QB50P2 17 Oct 19:13:38 19:16:41 19° 266° (W) 19:19:46 145.880/145.840
AO-85 17 Oct 19:17:11 19:17:59 11° 108° (ESE) 19:18:46 145.980
ESTCUBE 1 17 Oct 19:17:41 19:21:49 38° 289° (WNW) 19:25:57 437.505/2401.250
NANOSAT C BR1 17 Oct 19:20:28 19:23:34 20° 266° (W) 19:26:42 145.865
VELOX 1 17 Oct 19:22:34 19:26:43 38° 98° (E) 19:30:52 145.980
AO-7 17 Oct 19:30:51 19:34:51 15° 48° (NE) 19:38:50 .
DUCHIFAT 1 17 Oct 19:33:44 19:36:24 16° 267° (W) 19:39:05 145.980
NO-84 17 Oct 19:34:12 19:35:30 12° 239° (WSW) 19:36:45 435.350 FM
ISS 17 Oct 19:37:14 19:39:15 15° 341° (NNW) 19:41:15 437.550
SRMSAT 17 Oct 19:38:11 19:39:06 10° 185° (S) 19:40:01 437.500
M-CUBED/EXP-1 PRIME 17 Oct 19:39:06 19:42:37 83° 253° (WSW) 19:45:57 437.505
BEESAT 2 17 Oct 19:51:06 19:54:52 42° 116° (ESE) 19:58:42 435.950
BUGSAT 1 17 Oct 19:53:51 19:57:41 35° 263° (W) 20:01:34 437.445
50 SAT 17 Oct 20:05:06 20:08:03 29° 98° (E) 20:10:59 437.505
BEESAT 3 17 Oct 20:16:34 20:20:06 29° 309° (NW) 20:23:40 437.485
Oscar 19 17 Oct 20:28:34 20:33:25 40° 261° (W) 20:38:17 437.125/150
Gurwin Techsat 1B 17 Oct 20:32:09 20:37:21 56° 260° (W) 20:42:35 435.225
DX 1 17 Oct 20:39:46 20:44:07 67° 101° (ESE) 20:48:28 434.975-435.025
SPROUT 17 Oct 20:41:22 20:44:23 19° 293° (WNW) 20:47:24 437.525
AO-85 17 Oct 20:54:00 20:57:48 55° 304° (NW) 21:01:41 145.980
ITAMSAT 1 17 Oct 20:54:40 20:58:39 23° 65° (ENE) 21:02:38 435.822/435.867
VELOX 1 17 Oct 20:59:45 21:02:52 19° 294° (WNW) 21:05:59 145.980
UKube-1 17 Oct 21:11:04 21:15:25 86° 281° (W) 21:19:44 .
BEESAT 17 Oct 21:16:18 21:18:24 13° 91° (E) 21:20:30 436.000
AO-7 17 Oct 21:17:52 21:26:03 66° 68° (ENE) 21:34:14 .
BEESAT 2 17 Oct 21:29:56 21:32:47 19° 313° (NW) 21:35:41 435.950
50 SAT 17 Oct 21:38:31 21:40:05 13° 293° (WNW) 21:41:40 437.505
Tancredo 1 17 Oct 21:41:12 21:42:37 18° 31° (NNE) 21:44:01 437.200
DX 1 17 Oct 22:18:18 22:19:43 11° 298° (WNW) 22:21:08 434.975-435.025
SO-50 17 Oct 22:23:02 22:27:16 35° 51° (NE) 22:31:33 436.795
nSIGHT-1 17 Oct 22:27:55 22:29:47 14° 18° (NNE) 22:31:37 .
ITAMSAT 1 17 Oct 22:32:54 22:37:48 43° 261° (W) 22:42:45 435.822/435.867
ITUPSAT 1 17 Oct 22:33:55 22:38:45 84° 105° (ESE) 22:43:32 437.325
MOZHAYETS 4 17 Oct 22:36:34 22:41:10 76° 285° (WNW) 22:45:42
CUBESAT XI-V 17 Oct 22:39:23 22:43:05 24° 95° (E) 22:46:46 437.345
BEESAT 17 Oct 22:51:49 22:56:33 62° 287° (WNW) 23:01:15 436.000
ISS 17 Oct 22:52:04 22:54:23 18° 22° (NNE) 22:56:43 437.550
DOVE 4 17 Oct 23:03:23 23:07:14 39° 72° (ENE) 23:11:13 437.250
AO-7 17 Oct 23:12:43 23:19:18 26° 265° (W) 23:25:56 .
Tancredo 1 17 Oct 23:13:20 23:14:18 13° 226° (SW) 23:15:15 437.200
LilacSat-2 17 Oct 23:28:21 23:30:54 17° 68° (ENE) 23:33:26 437.200
XW-2F 17 Oct 23:30:33 23:32:51 16° 67° (ENE) 23:35:09 145.980 - 146.000
KAITUO 1B 17 Oct 23:34:59 23:36:52 14° 67° (ENE) 23:38:46 145.475/437.950
XW-2D 17 Oct 23:39:30 23:42:27 22° 70° (ENE) 23:45:25 145.860 - 145.880
